Snowfall_Accumulation
2.1 2.9 7.0 5.6 3.9 4.0 6.1 3.6 5.7 3.5 1.4 1.6 1.6 1.5 2.0 1.5 0.8 1.2 2.2 2.5 2.4 2.6 3.1 2.9 2.6 1.9 2.0 2.9 4.2 5.4 3.6 5.5 0.9 0.9 0.5 0.1 0.0 0.0 0.0 0.0 0.0 0.0 0.0 0.0
6.9 3.5 3.8 4.0 2.0 2.8 2.6 2.7 2.4 3.1 2.8 2.5 1.7 1.1 1.1 1.4 1.1 0.6 1.3 2.1 2.4 2.4 2.9 3.0 3.1 2.9 3.0 3.0 4.9 5.0 5.8 5.1 0.6 0.8 2.2 0.3 0.0 0.0 0.0 0.0 0.3 0.0 0.0 0.0
12.0 2.6 4.6 4.8 4.8 4.4 5.3 6.3 5.5 4.6 4.0 2.4 1.7 1.8 1.9 1.6 1.4 1.3 1.1 1.5 2.1 2.4 3.0 3.4 3.6 4.0 3.9 4.4 4.0 5.4 5.4 3.9 4.9 2.0 2.2 0.5 0.6 0.4 0.2 0.3 0.4 0.0 0.0 0.2
20.0 15.1 20.8 6.6 2.5 2.6 4.6 6.0 6.6 4.8 2.6 2.3 2.7 2.7 3.1 2.2 1.7 1.4 1.1 1.2 1.6 2.1 2.5 2.7 3.0 3.4 4.0 4.4 5.2 5.9 5.8 6.1 4.7 5.3 5.7 0.6 0.9 0.6 0.4 0.2 0.5 0.0 0.0 0.6
20.0 13.2 8.4 5.2 4.9 6.4 6.2 6.4 5.1 3.8 1.5 0.6 0.6 2.1 3.3 1.8 1.6 1.8 1.8 1.6 1.7 2.0 2.5 2.6 2.7 2.6 3.1 4.1 4.7 5.8 6.1 6.3 7.0 5.7 6.2 5.1 1.1 0.9 0.7 0.3 2.1 5.7 4.4 5.4
22.0 18.0 9.4 5.6 6.5 8.0 4.4 5.2 3.1 2.7 1.8 1.5 0.3 1.2 1.4 0.8 1.3 1.3 1.4 1.6 1.7 1.7 1.7 1.9 2.2 2.3 2.3 3.7 5.2 6.3 7.8 8.9 8.4 7.8 10.9 11.7 4.5 8.7 6.1 3.6 7.0 6.6 6.2 5.6
14.7 19.5 6.8 4.7 4.2 5.5 7.1 5.8 3.6 4.0 3.0 2.2 2.3 2.6 1.4 1.1 0.7 0.9 1.3 1.5 1.7 1.6 1.9 2.1 1.8 1.7 2.3 3.9 7.1 6.7 5.3 6.1 7.8 8.2 10.3 11.1 13.5 9.6 4.6 4.7 4.8 4.7 5.1 3.0
10.5 21.9 14.4 2.1 1.7 5.5 6.8 3.5 3.5 3.4 3.9 3.0 1.7 1.5 1.6 0.7 0.5 0.7 0.5 0.7 1.1 1.2 1.6 1.9 1.8 1.6 1.5 1.8 2.8 3.5 3.7 4.1 5.7 8.2 9.6 9.6 9.4 9.3 6.5 3.5 6.2 5.0 5.0 4.1
6.7 7.9 6.6 5.0 6.4 6.2 3.3 2.0 1.6 1.8 2.3 3.4 2.3 1.7 1.9 1.6 0.9 0.7 0.6 0.6 0.6 0.9 0.9 1.3 1.8 2.1 1.7 1.7 2.0 2.0 2.1 3.7 5.5 6.8 6.7 8.3 8.1 9.0 11.2 8.6 8.3 5.4 4.5 4.2
2.8 2.8 0.8 4.0 2.3 1.6 1.6 2.5 2.0 1.2 1.1 1.6 2.9 2.5 2.6 2.4 1.7 1.3 1.0 1.1 1.1 1.0 0.4 0.4 0.8 1.5 2.1 1.9 1.5 2.7 5.1 5.9 5.5 6.0 8.4 7.6 9.1 11.2 12.8 14.7 12.4 6.5 4.8 5.1
6.3 4.7 4.2 5.0 2.9 3.1 3.9 4.6 3.8 2.5 3.6 3.2 3.2 2.2 2.8 3.2 3.0 2.5 2.0 1.7 1.5 2.1 2.0 1.1 0.6 0.9 1.5 2.0 1.9 2.4 4.3 6.4 8.2 8.6 11.4 12.0 13.1 17.6 19.4 13.4 18.5 20.5 12.8 9.8
6.1 2.5 5.3 4.2 3.3 3.8 3.5 4.4 3.9 2.9 3.1 2.1 2.4 0.9 1.5 1.5 2.3 2.8 3.8 2.7 2.8 2.8 3.2 3.8 3.2 2.8 1.6 2.7 4.9 6.7 8.2 8.6 10.7 12.4 12.2 13.2 14.6 19.4 14.9 16.8 13.6 12.3 14.0 14.6
4.8 3.7 4.2 3.5 2.7 2.3 3.4 2.5 1.7 1.8 3.0 3.3 2.4 1.9 1.8 1.3 0.7 2.2 2.2 2.6 3.2 3.7 4.0 4.7 5.2 6.2 6.7 7.6 8.5 8.9 10.3 10.9 12.7 12.5 13.1 13.8 15.8 15.3 18.1 17.8 12.7 13.5 13.0 10.0
2.9 2.8 4.1 2.5 2.7 3.0 2.3 1.8 2.7 2.6 1.8 1.6 1.9 1.1 1.1 2.1 1.4 1.2 2.6 3.2 3.6 3.6 4.1 4.4 4.8 7.1 7.2 8.3 7.9 8.0 9.4 9.9 11.8 11.9 13.5 14.2 15.3 14.8 14.5 16.4 18.9 19.6 12.8 11.0
3.7 3.1 5.6 4.1 3.6 3.8 2.1 2.9 2.1 2.2 2.1 2.9 3.4 3.7 3.9 4.4 4.6 5.1 4.8 4.4 4.9 5.5 6.3 6.5 6.2 6.5 6.4 6.7 7.1 6.9 7.5 9.2 11.1 12.3 12.1 14.8 15.4 15.0 15.3 16.2 17.1 18.4 20.3 17.8
4.8 3.8 3.1 2.8 3.6 3.5 2.8 2.2 3.1 4.8 3.6 4.8 4.8 5.0 4.9 4.8 5.6 5.8 5.8 5.4 5.5 6.5 7.1 7.0 6.5 6.4 5.5 5.7 5.3 5.5 6.4 8.9 10.7 10.9 11.3 12.3 13.1 14.2 15.2 15.7 17.1 17.5 18.5 21.0
9.9 7.6 4.7 6.1 5.3 5.7 6.3 6.4 6.2 6.4 6.4 5.7 5.6 5.4 4.9 4.7 4.5 5.0 5.4 5.5 5.2 5.4 5.5 5.3 6.1 6.2 6.3 5.6 5.1 5.9 6.2 8.0 9.0 9.3 9.9 11.0 12.6 13.9 13.8 15.7 16.5 17.6 19.0 18.8
8.1 8.6 10.2 12.1 12.0 9.2 7.3 9.9 8.2 8.5 8.9 8.4 7.8 6.5 6.2 5.7 7.1 5.8 6.6 5.4 4.5 4.4 4.9 4.9 5.6 6.4 5.0 4.8 6.7 6.5 6.0 7.4 7.8 8.8 9.0 9.8 12.2 12.6 13.3 15.1 16.0 17.7 19.3 20.1
8.1 10.0 8.5 8.7 9.4 9.2 9.7 9.8 9.0 8.7 7.8 7.0 8.1 8.2 7.9 7.6 7.1 6.5 6.0 4.5 3.8 3.0 5.3 4.5 5.5 4.0 3.8 4.7 6.4 5.3 8.3 9.1 9.8 11.4 10.3 11.4 11.5 11.0 12.5 13.8 15.2 15.6 16.0 16.8
9.1 7.0 7.2 7.3 7.0 6.7 6.7 5.7 5.7 5.5 6.3 5.5 5.2 4.6 5.0 5.2 5.0 4.3 3.8 4.0 4.8 5.9 6.5 5.1 3.2 3.4 4.0 4.9 5.7 6.7 9.3 10.7 12.1 11.2 9.8 11.2 11.0 12.5 13.1 15.4 16.2 16.8 15.7 16.6
10.7 10.6 8.4 7.0 6.1 5.4 5.9 6.6 5.9 5.3 6.0 5.9 5.4 4.8 4.9 5.2 4.2 3.5 3.3 2.5 3.7 4.6 4.1 3.4 2.6 4.6 6.1 9.7 7.6 7.8 10.1 13.0 14.2 14.2 13.5 12.6 12.5 11.0 11.3 13.4 15.5 14.9 15.5 15.9
7.6 8.1 9.1 6.7 4.9 4.2 5.5 5.6 5.4 5.4 4.4 4.1 4.1 3.9 3.0 3.0 2.7 2.7 2.9 5.1 4.7 4.8 5.0 2.6 4.0 7.1 11.5 13.6 13.5 11.2 12.9 13.2 16.1 16.6 14.5 12.4 12.1 12.1 12.6 13.4 15.3 16.1 16.1 15.3
8.6 9.4 8.5 8.6 9.2 9.0 6.9 6.0 5.8 6.2 4.9 5.4 5.3 5.1 5.5 5.6 5.7 6.6 6.8 6.1 5.9 7.0 7.4 6.9 10.7 11.5 14.5 13.8 11.8 11.6 13.9 14.1 14.8 15.8 16.4 16.7 14.9 13.8 14.1 14.1 14.7 15.0 14.9 15.3
7.0 8.0 9.3 10.0 9.4 7.7 7.8 9.7 8.9 8.6 7.9 7.4 8.6 8.8 8.6 9.1 8.3 9.2 11.4 12.3 11.1 10.9 10.8 13.3 13.7 13.9 12.9 12.3 12.5 12.9 13.9 15.0 17.3 18.2 18.4 18.1 15.7 14.8 13.7 13.1 14.8 14.0 14.1 14.6
6.5 6.5 6.0 5.8 5.7 7.3 7.4 7.8 6.0 6.8 7.0 6.1 6.6 8.2 9.1 9.9 13.0 13.1 9.9 10.5 10.9 9.5 9.4 11.3 11.8 11.3 9.6 11.1 12.8 13.4 15.4 17.2 19.2 21.0 20.1 19.0 18.1 17.3 16.3 15.8 15.9 16.3 17.3 16.6
4.8 5.7 6.4 5.7 7.1 6.4 6.8 5.3 5.5 6.8 5.9 5.0 5.0 6.1 6.9 7.6 8.3 7.6 7.7 9.5 8.9 9.0 7.5 8.3 10.8 10.4 10.0 11.8 12.5 12.8 14.4 15.9 16.1 18.2 19.0 18.9 18.7 17.2 16.6 16.5 16.6 17.3 17.6 18.1
3.3 4.9 4.0 3.0 3.2 4.3 5.2 5.8 4.9 5.5 5.4 6.0 5.2 5.8 5.6 5.4 5.5 6.1 5.9 6.0 6.6 7.3 6.9 7.5 8.4 10.4 11.0 12.6 11.8 12.3 12.8 15.2 17.2 19.0 19.1 19.2 18.6 18.7 18.8 18.6 18.2 18.2 18.3 18.4